SBI6008 URWW-URSS

Flight info

Callsign SBI6008
Flight time 1h 56m
Altitude 35000
Route NOKLI DCT GORNU B945 DETIR/K0845F360 DCT KZ R227 BEMES A944 GUBOR G487 BINOL
Aircraft A320/M-SDE3FGHIRWY/LB1

Departure

Time 2026-04-24 09:32
Airport Volgograd International Airport (URWW)

Arrival

Time 2026-04-24 11:28
Airport Sochi International Airport (URSS)
Time Latitude Longitude Altitude Speed Heading
2026-04-24 09:27 48.78540 44.35182 482 ft 0 kts 245°
2026-04-24 09:31 48.78526 44.35137 483 ft 16 kts 245°
2026-04-24 09:31 48.78381 44.34685 477 ft 81 kts 245°
2026-04-24 09:31 48.78055 44.33655 465 ft 135 kts 243°
2026-04-24 09:31 48.77602 44.32245 839 ft 149 kts 243°
2026-04-24 09:32 48.77157 44.30832 1607 ft 147 kts 241°
2026-04-24 09:32 48.76724 44.29471 2283 ft 145 kts 242°
2026-04-24 09:32 48.76291 44.28111 2925 ft 142 kts 241°
2026-04-24 09:32 48.75860 44.26766 3549 ft 141 kts 242°
2026-04-24 09:33 48.75417 44.25382 3982 ft 155 kts 242°
2026-04-24 09:33 48.74913 44.23810 4235 ft 177 kts 242°
2026-04-24 09:33 48.74104 44.22302 4503 ft 200 kts 212°
2026-04-24 09:33 48.72623 44.21997 4825 ft 240 kts 173°
2026-04-24 09:34 48.71074 44.23255 5467 ft 266 kts 149°
2026-04-24 09:34 48.69694 44.25199 6328 ft 274 kts 142°
2026-04-24 09:34 48.68377 44.27314 7211 ft 278 kts 142°
2026-04-24 09:34 48.67036 44.29427 8053 ft 279 kts 143°
2026-04-24 09:35 48.65655 44.31478 8898 ft 279 kts 145°
2026-04-24 09:35 48.64224 44.33482 9699 ft 280 kts 147°
2026-04-24 09:35 48.62720 44.35488 10050 ft 299 kts 147°
2026-04-24 09:35 48.61072 44.37606 10221 ft 322 kts 148°
2026-04-24 09:36 48.59313 44.39838 10609 ft 336 kts 148°
2026-04-24 09:36 48.57509 44.42133 11249 ft 341 kts 148°
2026-04-24 09:36 48.55689 44.44460 11921 ft 345 kts 148°
2026-04-24 09:36 48.53849 44.46814 12601 ft 349 kts 148°
2026-04-24 09:37 48.52038 44.49126 13246 ft 352 kts 149°
2026-04-24 09:37 48.50257 44.51391 13791 ft 356 kts 149°
2026-04-24 09:37 48.48357 44.53805 14420 ft 358 kts 150°
2026-04-24 09:37 48.46447 44.56228 15047 ft 360 kts 150°
2026-04-24 09:38 48.44552 44.58628 15665 ft 362 kts 150°
2026-04-24 09:38 48.42592 44.61110 16283 ft 364 kts 150°
2026-04-24 09:38 48.40676 44.63535 16895 ft 367 kts 151°
2026-04-24 09:38 48.38688 44.66050 17508 ft 369 kts 151°
2026-04-24 09:39 48.36741 44.68508 18072 ft 372 kts 151°
2026-04-24 09:39 48.34723 44.71048 18575 ft 375 kts 151°
2026-04-24 09:39 48.32743 44.73538 19058 ft 378 kts 151°
2026-04-24 09:39 48.30713 44.76086 19531 ft 382 kts 151°
2026-04-24 09:40 48.28665 44.78655 20013 ft 385 kts 151°
2026-04-24 09:40 48.26600 44.81243 20476 ft 389 kts 151°
2026-04-24 09:40 48.24514 44.83856 20936 ft 392 kts 152°
2026-04-24 09:40 48.22411 44.86492 21373 ft 396 kts 152°
2026-04-24 09:41 48.20287 44.89153 21816 ft 399 kts 152°
2026-04-24 09:41 48.18146 44.91835 22245 ft 403 kts 152°
2026-04-24 09:41 48.15991 44.94528 22674 ft 406 kts 152°
2026-04-24 09:41 48.13812 44.97244 23081 ft 409 kts 152°
2026-04-24 09:42 48.11619 44.99974 23440 ft 412 kts 152°
2026-04-24 09:42 48.09405 45.02732 23775 ft 415 kts 152°
2026-04-24 09:42 48.07185 45.05496 24110 ft 417 kts 151°
2026-04-24 09:42 48.04948 45.08277 24426 ft 419 kts 151°
2026-04-24 09:43 48.02663 45.10965 24743 ft 414 kts 157°
2026-04-24 09:43 48.00203 45.13084 25047 ft 406 kts 164°
2026-04-24 09:43 47.97679 45.14989 25352 ft 408 kts 163°
2026-04-24 09:43 47.95140 45.16902 25664 ft 410 kts 163°
2026-04-24 09:44 47.92583 45.18827 25965 ft 412 kts 163°
2026-04-24 09:44 47.90016 45.20757 26267 ft 415 kts 163°
2026-04-24 09:44 47.87428 45.22705 26566 ft 417 kts 163°
2026-04-24 09:44 47.84837 45.24655 26851 ft 419 kts 163°
2026-04-24 09:45 47.82223 45.26621 27151 ft 422 kts 163°
2026-04-24 09:45 47.79619 45.28578 27440 ft 424 kts 163°
2026-04-24 09:45 47.76959 45.30575 27714 ft 426 kts 163°
2026-04-24 09:45 47.74315 45.32559 27969 ft 428 kts 163°
2026-04-24 09:46 47.71650 45.34554 28219 ft 430 kts 163°
2026-04-24 09:46 47.68973 45.36558 28462 ft 431 kts 163°
2026-04-24 09:46 47.66286 45.38562 28695 ft 433 kts 163°
2026-04-24 09:46 47.63626 45.40541 28918 ft 435 kts 163°
2026-04-24 09:47 47.60915 45.42554 29134 ft 437 kts 163°
2026-04-24 09:47 47.58193 45.44576 29346 ft 438 kts 163°
2026-04-24 09:47 47.55462 45.46606 29570 ft 439 kts 163°
2026-04-24 09:47 47.52738 45.48634 29864 ft 439 kts 162°
2026-04-24 09:48 47.50009 45.50664 30091 ft 439 kts 163°
2026-04-24 09:48 47.47280 45.52687 30308 ft 439 kts 163°
2026-04-24 09:48 47.44549 45.54702 30512 ft 439 kts 163°
2026-04-24 09:48 47.41813 45.56722 30724 ft 440 kts 163°
2026-04-24 09:49 47.39071 45.58747 30929 ft 441 kts 162°
2026-04-24 09:49 47.36327 45.60771 31137 ft 441 kts 163°
2026-04-24 09:49 47.33579 45.62791 31344 ft 442 kts 163°
2026-04-24 09:49 47.30826 45.64813 31548 ft 442 kts 162°
2026-04-24 09:50 47.28069 45.66840 31777 ft 443 kts 162°
2026-04-24 09:50 47.25314 45.68865 32035 ft 443 kts 162°
2026-04-24 09:50 47.22548 45.70894 32282 ft 444 kts 162°
2026-04-24 09:50 47.20717 45.72233 32434 ft 444 kts 162°
2026-04-24 09:51 47.17953 45.74251 32662 ft 444 kts 162°
2026-04-24 09:51 47.15182 45.76276 32889 ft 445 kts 162°
2026-04-24 09:51 47.12411 45.78299 33107 ft 445 kts 162°
2026-04-24 09:51 47.09634 45.80322 33320 ft 445 kts 162°
2026-04-24 09:52 47.06857 45.82340 33534 ft 446 kts 162°
2026-04-24 09:52 47.04079 45.84359 33752 ft 446 kts 162°
2026-04-24 09:52 47.01299 45.86381 33948 ft 446 kts 162°
2026-04-24 09:52 46.98517 45.88403 34138 ft 446 kts 162°
2026-04-24 09:53 46.95739 45.90412 34336 ft 445 kts 162°
2026-04-24 09:53 46.92964 45.92413 34536 ft 445 kts 162°
2026-04-24 09:53 46.90194 45.94411 34728 ft 444 kts 161°
2026-04-24 09:53 46.87427 45.96410 34925 ft 443 kts 161°
2026-04-24 09:54 46.84661 45.98408 35109 ft 443 kts 161°
2026-04-24 09:54 46.81903 46.00398 35285 ft 442 kts 161°
2026-04-24 09:54 46.79146 46.02385 35463 ft 442 kts 161°
2026-04-24 09:54 46.76393 46.04367 35627 ft 441 kts 161°
2026-04-24 09:55 46.73641 46.06341 35761 ft 441 kts 161°
2026-04-24 09:55 46.70889 46.08311 35799 ft 441 kts 161°
2026-04-24 09:55 46.65389 46.12243 35799 ft 440 kts 161°
2026-04-24 09:56 46.59903 46.16171 35624 ft 439 kts 161°
2026-04-24 09:56 46.57161 46.18126 35431 ft 439 kts 162°
2026-04-24 09:56 46.54418 46.20074 35237 ft 439 kts 162°
2026-04-24 09:57 46.51679 46.22020 35044 ft 439 kts 162°
2026-04-24 09:57 46.48936 46.23968 34856 ft 439 kts 162°
2026-04-24 09:57 46.43487 46.27823 34807 ft 439 kts 162°
2026-04-24 09:58 46.37999 46.31713 34807 ft 439 kts 162°
2026-04-24 09:58 46.32511 46.35598 34806 ft 439 kts 162°
2026-04-24 09:59 46.27024 46.39466 34804 ft 439 kts 162°
2026-04-24 09:59 46.21527 46.43323 34809 ft 439 kts 162°
2026-04-24 10:00 46.16065 46.47149 34810 ft 439 kts 162°
2026-04-24 10:00 46.10564 46.50996 34807 ft 439 kts 162°
2026-04-24 10:01 46.05061 46.54835 34808 ft 439 kts 162°
2026-04-24 10:01 45.99563 46.58666 34813 ft 439 kts 162°
2026-04-24 10:02 45.94098 46.62481 34817 ft 439 kts 162°
2026-04-24 10:02 45.88590 46.66304 34815 ft 439 kts 163°
2026-04-24 10:03 45.83075 46.70116 34819 ft 440 kts 163°
2026-04-24 10:03 45.77552 46.73933 34816 ft 440 kts 163°
2026-04-24 10:04 45.72022 46.77738 34819 ft 441 kts 163°
2026-04-24 10:04 45.66526 46.81510 34826 ft 441 kts 163°
2026-04-24 10:05 45.60985 46.85303 34826 ft 442 kts 163°
2026-04-24 10:05 45.55447 46.89102 34824 ft 442 kts 163°
2026-04-24 10:06 45.47116 46.94812 34828 ft 443 kts 163°
2026-04-24 10:07 45.41562 46.98593 34831 ft 443 kts 163°
2026-04-24 10:07 45.36000 47.02360 34834 ft 443 kts 163°
2026-04-24 10:08 45.30475 47.06097 34837 ft 443 kts 163°
2026-04-24 10:08 45.24913 47.09861 34833 ft 443 kts 163°
2026-04-24 10:09 45.19346 47.13624 34837 ft 443 kts 163°
2026-04-24 10:09 45.13780 47.17373 34839 ft 442 kts 163°
2026-04-24 10:10 45.08252 47.21083 34840 ft 442 kts 163°
2026-04-24 10:10 45.02547 47.23761 34842 ft 423 kts 179°
2026-04-24 10:11 44.96725 47.24872 34844 ft 422 kts 180°
2026-04-24 10:11 44.90900 47.26010 34843 ft 422 kts 180°
2026-04-24 10:12 44.85117 47.27150 34855 ft 423 kts 180°
2026-04-24 10:12 44.82202 47.27726 35020 ft 423 kts 180°
2026-04-24 10:12 44.79291 47.28299 35210 ft 422 kts 180°
2026-04-24 10:12 44.76386 47.28865 35384 ft 422 kts 180°
2026-04-24 10:13 44.73474 47.29429 35553 ft 422 kts 180°
2026-04-24 10:13 44.70567 47.29991 35718 ft 421 kts 180°
2026-04-24 10:13 44.67656 47.30551 35827 ft 422 kts 180°
2026-04-24 10:14 44.61842 47.31680 35846 ft 421 kts 179°
2026-04-24 10:14 44.56079 47.32629 35840 ft 414 kts 187°
2026-04-24 10:15 44.50545 47.31305 35839 ft 398 kts 206°
2026-04-24 10:15 44.45793 47.27570 35843 ft 392 kts 217°
2026-04-24 10:16 44.41228 47.23385 35839 ft 392 kts 216°
2026-04-24 10:16 44.36675 47.19255 35837 ft 393 kts 216°
2026-04-24 10:17 44.32082 47.15103 35838 ft 393 kts 216°
2026-04-24 10:17 44.27499 47.10942 35839 ft 393 kts 217°
2026-04-24 10:18 44.22914 47.06777 35837 ft 393 kts 217°
2026-04-24 10:18 44.18330 47.02633 35833 ft 393 kts 217°
2026-04-24 10:19 44.13742 46.98506 35830 ft 393 kts 217°
2026-04-24 10:19 44.09188 46.94407 35823 ft 393 kts 217°
2026-04-24 10:20 44.04598 46.90282 35816 ft 393 kts 217°
2026-04-24 10:20 44.00009 46.86158 35817 ft 393 kts 217°
2026-04-24 10:21 43.95413 46.82043 35811 ft 393 kts 217°
2026-04-24 10:21 43.90812 46.77932 35812 ft 394 kts 217°
2026-04-24 10:22 43.86663 46.73129 35811 ft 387 kts 235°
2026-04-24 10:22 43.85316 46.69917 35809 ft 386 kts 247°
2026-04-24 10:22 43.84570 46.66353 35803 ft 388 kts 259°
2026-04-24 10:22 43.84467 46.62604 35811 ft 393 kts 271°
2026-04-24 10:23 43.84856 46.58840 35809 ft 395 kts 274°
2026-04-24 10:23 43.85683 46.51356 35808 ft 396 kts 274°
2026-04-24 10:24 43.86509 46.43807 35805 ft 396 kts 274°
2026-04-24 10:24 43.87319 46.36249 35805 ft 397 kts 274°
2026-04-24 10:25 43.88125 46.28680 35811 ft 397 kts 274°
2026-04-24 10:25 43.88935 46.21103 35814 ft 397 kts 274°
2026-04-24 10:26 43.89747 46.13522 35811 ft 397 kts 274°
2026-04-24 10:26 43.90555 46.05946 35812 ft 397 kts 274°
2026-04-24 10:27 43.91344 45.98363 35814 ft 397 kts 274°
2026-04-24 10:27 43.92124 45.90784 35813 ft 397 kts 273°
2026-04-24 10:28 43.92389 45.83229 35811 ft 394 kts 268°
2026-04-24 10:28 43.92552 45.75646 35806 ft 393 kts 268°
2026-04-24 10:29 43.92720 45.68059 35801 ft 393 kts 268°
2026-04-24 10:29 43.92875 45.60480 35803 ft 393 kts 268°
2026-04-24 10:30 43.93025 45.52897 35800 ft 393 kts 268°
2026-04-24 10:30 43.93169 45.45318 35797 ft 393 kts 268°
2026-04-24 10:31 43.93310 45.37778 35797 ft 393 kts 268°
2026-04-24 10:31 43.93448 45.30202 35802 ft 393 kts 268°
2026-04-24 10:32 43.93578 45.22616 35802 ft 393 kts 268°
2026-04-24 10:32 43.93699 45.15034 35817 ft 393 kts 268°
2026-04-24 10:33 43.93822 45.07435 35805 ft 393 kts 268°
2026-04-24 10:33 43.93936 44.99898 35807 ft 393 kts 268°
2026-04-24 10:34 43.94044 44.92313 35809 ft 393 kts 268°
2026-04-24 10:34 43.94150 44.84724 35809 ft 393 kts 268°
2026-04-24 10:35 43.94247 44.77124 35808 ft 393 kts 268°
2026-04-24 10:35 43.94342 44.69578 35810 ft 394 kts 268°
2026-04-24 10:36 43.94432 44.61981 35809 ft 394 kts 268°
2026-04-24 10:36 43.94519 44.54379 35812 ft 394 kts 268°
2026-04-24 10:37 43.94600 44.46769 35808 ft 394 kts 268°
2026-04-24 10:37 43.94679 44.39172 35809 ft 394 kts 268°
2026-04-24 10:38 43.94749 44.31622 35809 ft 394 kts 268°
2026-04-24 10:38 43.94816 44.24028 35804 ft 393 kts 268°
2026-04-24 10:39 43.94868 44.16432 35808 ft 393 kts 267°
2026-04-24 10:39 43.94917 44.08846 35807 ft 393 kts 268°
2026-04-24 10:40 43.94971 44.01261 35807 ft 393 kts 268°
2026-04-24 10:40 43.95022 43.93682 35802 ft 393 kts 268°
2026-04-24 10:41 43.95060 43.86150 35804 ft 393 kts 268°
2026-04-24 10:41 43.95096 43.78565 35809 ft 393 kts 268°
2026-04-24 10:42 43.95128 43.70994 35809 ft 392 kts 268°
2026-04-24 10:42 43.95154 43.63426 35809 ft 392 kts 268°
2026-04-24 10:43 43.95175 43.55868 35812 ft 391 kts 267°
2026-04-24 10:43 43.95186 43.48308 35815 ft 391 kts 267°
2026-04-24 10:44 43.95196 43.40802 35819 ft 391 kts 267°
2026-04-24 10:44 43.95202 43.33255 35831 ft 391 kts 267°
2026-04-24 10:45 43.95199 43.25708 35837 ft 391 kts 267°
2026-04-24 10:45 43.95193 43.18155 35843 ft 391 kts 267°
2026-04-24 10:46 43.95179 43.10648 35849 ft 391 kts 267°
2026-04-24 10:46 43.95157 43.03097 35853 ft 391 kts 267°
2026-04-24 10:47 43.95136 42.95537 35858 ft 392 kts 267°
2026-04-24 10:47 43.95122 42.87958 35857 ft 392 kts 267°
2026-04-24 10:48 43.95095 42.80399 35854 ft 392 kts 267°
2026-04-24 10:48 43.95060 42.72839 35852 ft 392 kts 267°
2026-04-24 10:49 43.95017 42.65285 35853 ft 391 kts 267°
2026-04-24 10:49 43.94923 42.57777 35852 ft 391 kts 266°
2026-04-24 10:50 43.94699 42.50250 35854 ft 390 kts 265°
2026-04-24 10:50 43.94456 42.42720 35852 ft 390 kts 265°
2026-04-24 10:51 43.94267 42.36416 35850 ft 390 kts 265°
2026-04-24 10:51 43.94048 42.28944 35844 ft 390 kts 265°
2026-04-24 10:52 43.93823 42.21428 35843 ft 390 kts 265°
2026-04-24 10:52 43.93595 42.13914 35846 ft 390 kts 265°
2026-04-24 10:53 43.93357 42.06405 35840 ft 390 kts 265°
2026-04-24 10:53 43.93118 41.98887 35831 ft 389 kts 265°
2026-04-24 10:54 43.92876 41.91378 35828 ft 390 kts 265°
2026-04-24 10:54 43.92632 41.83879 35820 ft 389 kts 265°
2026-04-24 10:55 43.92375 41.76380 35826 ft 390 kts 265°
2026-04-24 10:55 43.92115 41.68885 35824 ft 389 kts 265°
2026-04-24 10:56 43.91845 41.61407 35816 ft 388 kts 265°
2026-04-24 10:56 43.91572 41.53922 35815 ft 388 kts 265°
2026-04-24 10:57 43.91291 41.46496 35818 ft 388 kts 265°
2026-04-24 10:57 43.91000 41.39022 35824 ft 388 kts 264°
2026-04-24 10:58 43.90706 41.31546 35826 ft 388 kts 264°
2026-04-24 10:58 43.90406 41.24068 35835 ft 388 kts 264°
2026-04-24 10:59 43.90100 41.16587 35729 ft 389 kts 264°
2026-04-24 10:59 43.89944 41.12851 35485 ft 388 kts 264°
2026-04-24 10:59 43.89789 41.09131 35248 ft 386 kts 264°
2026-04-24 10:59 43.89636 41.05424 35007 ft 385 kts 264°
2026-04-24 11:00 43.89483 41.01728 34767 ft 383 kts 264°
2026-04-24 11:00 43.89327 40.98043 34540 ft 383 kts 264°
2026-04-24 11:00 43.89170 40.94368 34307 ft 381 kts 264°
2026-04-24 11:00 43.89015 40.90699 34079 ft 380 kts 264°
2026-04-24 11:01 43.88860 40.87098 33837 ft 379 kts 264°
2026-04-24 11:01 43.88699 40.83454 33013 ft 379 kts 264°
2026-04-24 11:01 43.88534 40.79814 32226 ft 378 kts 263°
2026-04-24 11:01 43.88369 40.76183 31434 ft 378 kts 263°
2026-04-24 11:02 43.88119 40.72568 30651 ft 375 kts 257°
2026-04-24 11:02 43.87470 40.69110 30076 ft 367 kts 249°
2026-04-24 11:02 43.86490 40.65872 29422 ft 362 kts 245°
2026-04-24 11:02 43.85480 40.62711 28828 ft 356 kts 245°
2026-04-24 11:03 43.84492 40.59601 28266 ft 350 kts 245°
2026-04-24 11:03 43.83517 40.56523 27705 ft 346 kts 245°
2026-04-24 11:03 43.82555 40.53494 27150 ft 341 kts 245°
2026-04-24 11:03 43.81605 40.50510 26620 ft 336 kts 245°
2026-04-24 11:04 43.80660 40.47554 26080 ft 334 kts 244°
2026-04-24 11:04 43.79721 40.44635 25555 ft 331 kts 244°
2026-04-24 11:04 43.78788 40.41737 25024 ft 328 kts 244°
2026-04-24 11:04 43.77863 40.38869 24511 ft 325 kts 244°
2026-04-24 11:05 43.76946 40.36024 24011 ft 323 kts 244°
2026-04-24 11:05 43.76031 40.33191 23520 ft 323 kts 244°
2026-04-24 11:05 43.75118 40.30355 22979 ft 321 kts 244°
2026-04-24 11:05 43.74217 40.27555 22535 ft 317 kts 244°
2026-04-24 11:06 43.73326 40.24783 21998 ft 317 kts 244°
2026-04-24 11:06 43.72427 40.21998 21477 ft 315 kts 244°
2026-04-24 11:06 43.71544 40.19264 21121 ft 308 kts 244°
2026-04-24 11:06 43.70675 40.16576 20762 ft 304 kts 244°
2026-04-24 11:07 43.68473 40.11709 20080 ft 306 kts 227°
2026-04-24 11:07 43.66817 40.09799 19993 ft 322 kts 216°
2026-04-24 11:07 43.64812 40.08340 19930 ft 330 kts 209°
2026-04-24 11:08 43.62717 40.07033 19792 ft 332 kts 209°
2026-04-24 11:08 43.60617 40.05722 19542 ft 330 kts 209°
2026-04-24 11:08 43.58526 40.04415 19299 ft 330 kts 209°
2026-04-24 11:08 43.56438 40.03107 19058 ft 329 kts 208°
2026-04-24 11:09 43.54360 40.01807 18817 ft 327 kts 209°
2026-04-24 11:09 43.52294 40.00514 18579 ft 326 kts 208°
2026-04-24 11:09 43.50234 39.99225 18334 ft 325 kts 208°
2026-04-24 11:09 43.48179 39.97940 18061 ft 324 kts 208°
2026-04-24 11:10 43.46131 39.96659 17779 ft 323 kts 208°
2026-04-24 11:10 43.44016 39.95564 17522 ft 326 kts 203°
2026-04-24 11:10 43.41867 39.94581 17250 ft 325 kts 203°
2026-04-24 11:10 43.39724 39.93604 16982 ft 324 kts 203°
2026-04-24 11:11 43.37584 39.92628 16713 ft 323 kts 203°
2026-04-24 11:11 43.35454 39.91656 16450 ft 323 kts 203°
2026-04-24 11:11 43.33324 39.90689 16168 ft 322 kts 203°
2026-04-24 11:11 43.31199 39.89726 15914 ft 321 kts 203°
2026-04-24 11:12 43.29079 39.88766 15660 ft 320 kts 203°
2026-04-24 11:12 43.26969 39.87809 15393 ft 320 kts 203°
2026-04-24 11:12 43.24859 39.86850 15160 ft 319 kts 203°
2026-04-24 11:12 43.22753 39.85897 14909 ft 318 kts 202°
2026-04-24 11:13 43.20680 39.84957 14590 ft 317 kts 202°
2026-04-24 11:13 43.18588 39.84011 14153 ft 316 kts 202°
2026-04-24 11:13 43.16506 39.83071 13636 ft 315 kts 202°
2026-04-24 11:13 43.14433 39.82134 13183 ft 313 kts 202°
2026-04-24 11:14 43.12365 39.81198 12737 ft 313 kts 202°
2026-04-24 11:14 43.10299 39.80265 12293 ft 313 kts 202°
2026-04-24 11:14 43.08257 39.79259 11840 ft 310 kts 210°
2026-04-24 11:14 43.06566 39.77501 11401 ft 305 kts 230°
2026-04-24 11:15 43.05510 39.75012 10963 ft 305 kts 251°
2026-04-24 11:15 43.05244 39.72145 10562 ft 306 kts 273°
2026-04-24 11:15 43.05738 39.69357 10442 ft 298 kts 284°
2026-04-24 11:15 43.06350 39.66711 10310 ft 285 kts 284°
2026-04-24 11:16 43.06932 39.64175 10165 ft 275 kts 284°
2026-04-24 11:16 43.07497 39.61714 10002 ft 268 kts 284°
2026-04-24 11:16 43.08051 39.59279 9928 ft 268 kts 284°
2026-04-24 11:16 43.08606 39.56848 9754 ft 267 kts 284°
2026-04-24 11:17 43.09163 39.54423 9574 ft 267 kts 285°
2026-04-24 11:17 43.09718 39.52005 9395 ft 266 kts 285°
2026-04-24 11:17 43.10292 39.49634 9218 ft 267 kts 291°
2026-04-24 11:17 43.11287 39.47482 9043 ft 271 kts 309°
2026-04-24 11:18 43.12751 39.45837 8617 ft 277 kts 327°
2026-04-24 11:18 43.14567 39.44924 7870 ft 281 kts 344°
2026-04-24 11:18 43.16468 39.44345 7201 ft 278 kts 344°
2026-04-24 11:18 43.18346 39.43757 6557 ft 276 kts 345°
2026-04-24 11:19 43.20208 39.43163 5888 ft 273 kts 345°
2026-04-24 11:19 43.22045 39.42575 5245 ft 269 kts 345°
2026-04-24 11:19 43.23896 39.42318 4604 ft 268 kts
2026-04-24 11:19 43.25684 39.42974 3982 ft 268 kts 25°
2026-04-24 11:20 43.27164 39.44481 3681 ft 267 kts 47°
2026-04-24 11:20 43.28159 39.46624 3597 ft 269 kts 66°
2026-04-24 11:20 43.28916 39.48970 3436 ft 268 kts 67°
2026-04-24 11:20 43.29688 39.51284 3264 ft 267 kts 65°
2026-04-24 11:21 43.30487 39.53580 3085 ft 264 kts 65°
2026-04-24 11:21 43.31273 39.55832 2895 ft 254 kts 66°
2026-04-24 11:21 43.31996 39.57910 2740 ft 229 kts 66°
2026-04-24 11:21 43.32637 39.59755 2607 ft 207 kts 66°
2026-04-24 11:22 43.33227 39.61459 2479 ft 195 kts 67°
2026-04-24 11:22 43.33800 39.63116 2316 ft 189 kts 68°
2026-04-24 11:22 43.34361 39.64738 2234 ft 181 kts 67°
2026-04-24 11:22 43.34873 39.66215 2129 ft 162 kts 68°
2026-04-24 11:23 43.35341 39.67568 2064 ft 153 kts 69°
2026-04-24 11:23 43.35797 39.68889 2022 ft 152 kts 68°
2026-04-24 11:23 43.36246 39.70190 2018 ft 151 kts 70°
2026-04-24 11:23 43.36687 39.71468 2014 ft 148 kts 68°
2026-04-24 11:24 43.37124 39.72733 2009 ft 146 kts 70°
2026-04-24 11:24 43.37555 39.73984 2010 ft 145 kts 69°
2026-04-24 11:24 43.37984 39.75226 2005 ft 143 kts 69°
2026-04-24 11:24 43.38409 39.76462 2000 ft 143 kts 68°
2026-04-24 11:25 43.38836 39.77700 2016 ft 144 kts 68°
2026-04-24 11:25 43.39265 39.78947 2008 ft 145 kts 70°
2026-04-24 11:25 43.39699 39.80206 1948 ft 145 kts 69°
2026-04-24 11:25 43.40126 39.81446 1807 ft 143 kts 69°
2026-04-24 11:26 43.40549 39.82678 1632 ft 141 kts 68°
2026-04-24 11:26 43.40967 39.83895 1432 ft 140 kts 69°
2026-04-24 11:26 43.41382 39.85101 1220 ft 140 kts 70°
2026-04-24 11:26 43.41795 39.86303 1014 ft 138 kts 69°
2026-04-24 11:27 43.42204 39.87496 826 ft 137 kts 69°
2026-04-24 11:27 43.42608 39.88674 660 ft 136 kts 69°
2026-04-24 11:27 43.43009 39.89849 505 ft 135 kts 68°
2026-04-24 11:27 43.43415 39.91022 324 ft 137 kts 68°
2026-04-24 11:28 43.43809 39.92190 155 ft 136 kts 66°
2026-04-24 11:28 43.44201 39.93338 57 ft 118 kts 64°
2026-04-24 11:28 43.44479 39.94145 68 ft 70 kts 65°
2026-04-24 11:28 43.44617 39.94547 71 ft 31 kts 65°
2026-04-24 11:29 43.44683 39.94733 76 ft 12 kts 64°
2026-04-24 11:29 43.44705 39.94789 73 ft 2 kts 47°
2026-04-24 11:29 43.44709 39.94790 68 ft 0 kts 25°
2026-04-24 11:30 43.44713 39.94792 68 ft 2 kts 19°
2026-04-24 11:30 43.44717 39.94792 69 ft 0 kts
2026-04-24 11:30 43.44730 39.94791 72 ft 4 kts 351°
2026-04-24 11:30 43.44770 39.94767 76 ft 8 kts 335°
2026-04-24 11:31 43.44813 39.94728 73 ft 5 kts 323°
2026-04-24 11:31 43.44829 39.94712 73 ft 1 kts 320°
2026-04-24 11:31 43.44830 39.94711 73 ft 0 kts 320°
2026-04-24 11:31 43.44835 39.94703 73 ft 2 kts 313°
2026-04-24 11:32 43.44841 39.94671 72 ft 4 kts 265°
2026-04-24 11:32 43.44823 39.94627 65 ft 6 kts 239°
2026-04-24 11:32 43.44802 39.94567 72 ft 7 kts 245°
2026-04-24 11:32 43.44787 39.94521 68 ft 3 kts 245°
2026-04-24 11:33 43.44784 39.94511 70 ft 0 kts 245°
2026-04-24 11:33 43.44781 39.94502 70 ft 3 kts 245°
2026-04-24 11:33 43.44770 39.94470 68 ft 5 kts 244°
2026-04-24 11:33 43.44751 39.94417 65 ft 7 kts 244°
2026-04-24 11:34 43.44735 39.94369 70 ft 6 kts 249°
2026-04-24 11:34 43.44746 39.94333 72 ft 3 kts 329°
2026-04-24 11:34 43.44766 39.94327 71 ft 2 kts 346°
2026-04-24 11:34 43.44772 39.94324 71 ft 2 kts 342°
2026-04-24 11:35 43.44786 39.94316 71 ft 3 kts 335°
2026-04-24 11:35 43.44791 39.94313 68 ft 0 kts 335°
2026-04-24 11:47 43.41947 39.86747 939 ft 138 kts 69°
2026-04-24 11:47 43.42354 39.87932 765 ft 136 kts 69°
2026-04-24 11:47 43.42755 39.89109 605 ft 135 kts 70°
2026-04-24 11:48 43.43159 39.90282 442 ft 136 kts 67°
2026-04-24 11:48 43.43563 39.91460 252 ft 136 kts 67°
2026-04-24 11:48 43.43971 39.92635 91 ft 136 kts 68°
2026-04-24 11:48 43.44325 39.93691 59 ft 101 kts 65°
2026-04-24 11:49 43.44549 39.94346 76 ft 51 kts 65°
2026-04-24 11:49 43.44708 39.94790 75 ft 0 kts 26°
2026-04-24 11:49 43.41882 39.86556 970 ft 138 kts 69°
2026-04-24 11:52 43.44708 39.94790 75 ft 0 kts 26°